This is the latest recevied weather packets stored in our database for station/object KB0BDN-13. If no packets are shown the sender has not sent any weather packets the latest 10 day(s).
| Time | Temp. | Humidity | Pressure | Rain* | Wind** | Luminosity | Snow |
|---|---|---|---|---|---|---|---|
| 1788369397 | 21.67° C | 72% | 1006 hPa | 0 mm | - | - | - |
| 1788368497 | 21.11° C | 74% | 1006.2 hPa | 0 mm | - | - | - |
| 1788368351 | 21.11° C | 74% | 1006.3 hPa | 0 mm | - | - | - |
| 1788367597 | 21.11° C | 72% | 1006.3 hPa | 0 mm | - | - | - |
| 1788367450 | 21.67° C | 73% | 1006.1 hPa | 0 mm | - | - | - |
| 1788366697 | 21.11° C | 75% | 1006.1 hPa | 0 mm | - | - | - |
| 1788365797 | 20.56° C | 78% | 1006.2 hPa | 0 mm | - | - | - |
| 1788364897 | 20° C | 81% | 1006.2 hPa | 0 mm | - | - | - |
| 1788363997 | 19.44° C | 83% | 1006.3 hPa | 0 mm | - | - | - |
| 1788363851 | 19.44° C | 83% | 1006.3 hPa | 0 mm | - | - | - |
| 1788363097 | 18.89° C | 85% | 1006.3 hPa | 0 mm | - | - | - |
| 1788362197 | 18.89° C | 86% | 1006.3 hPa | 0 mm | - | - | - |
| 1788362050 | 18.89° C | 86% | 1006.3 hPa | 0 mm | - | - | - |
| 1788361297 | 18.33° C | 87% | 1006.3 hPa | 0 mm | - | - | - |
| 1788361150 | 18.33° C | 87% | 1006.3 hPa | 0 mm | - | - | - |
| 1788360397 | 17.78° C | 90% | 1006.3 hPa | 0 mm | - | - | - |
| 1788359497 | 17.22° C | 93% | 1006.3 hPa | 0 mm | - | - | - |
| 1788359350 | 17.22° C | 94% | 1006.4 hPa | 0 mm | - | - | - |
| 1788358597 | 16.67° C | 98% | 1006.4 hPa | 0 mm | - | - | - |
| 1788358450 | 16.67° C | 99% | 1006.6 hPa | 0 mm | - | - | - |
| 1788357697 | 15.56° C | 99% | 1006.6 hPa | 0 mm | - | - | - |
| 1788357549 | 15.56° C | 99% | 1006.6 hPa | 0 mm | - | - | - |
| 1788356797 | 15° C | 99% | 1006.6 hPa | 0 mm | - | - | - |
| 1788356650 | 15° C | 99% | 1006.6 hPa | 0 mm | - | - | - |
| 1788355750 | 14.44° C | 99% | 1006.4 hPa | 0 mm | - | - | - |
* Rain latest hour (hover to see other rain measurements)
** Current wind speed in m/s (hover to see current wind gust speed)